Location: Aulus
(42.7909°N, 1.3399°E)
Time: 07:27:52
(UTC+00:00)

Helios 1A - Pass Details

Date: 19 May 2025
Orbit: 544 x 570 km, 98.3° (Epoch: 03 June)

Event Time Altitude Azimuth Distance (km) Brightness Sun altitude
Rises 20:43:41 0° 9° (N) 2,782 7.0 -13.9°
Reaches altitude 10° 20:45:52 10° 6° (N) 1,878 6.1 -14.1°
Maximum altitude 20:49:52 60° 287° (WNW) 651 3.4 -14.7°
Drops below altitude 10° 20:53:49 10° 207° (SSW) 1,850 5.3 -15.1°
Enters shadow 20:55:42 - 204° (SSW) 2,634 6.1 -15.4°
